Mitchell, SD

12:00 PM CDT on October 20, 2019 (GMT -0500)
Mitchell Municipal

Weather History for KMHE - May, 2019

Change the Weather History Date:

Sunday, May 5, 2019

  Actual Average Record
Temperature  
Mean Temperature 54 °F 56 °F  
Max Temperature 63 °F 68 °F 95 °F (2004)
Min Temperature 45 °F 44 °F 26 °F (1954)
Degree Days  
Heating Degree Days 11 10  
Month to date heating degree days 67 51  
Since 1 July heating degree days 7755 7051  
Cooling Degree Days 0 1  
Month to date cooling degree days 0 2  
Year to date cooling degree days 0 4  
Growing Degree Days 4 (Base 50)    
Moisture  
Dew Point 40 °F    
Average Humidity 61    
Maximum Humidity 86    
Minimum Humidity 36    
Precipitation  
Precipitation T in 0.08 in 3.03 in (2012)
Month to date precipitation 0.01 0.45  
Year to date precipitation 7.59 4.25  
Snow  
Snow 0.00 in - T in (1989)
Month to date snowfall 0.0  
Since 1 July snowfall 67.6  
Snow Depth 0.00 in    
Sea Level Pressure  
Sea Level Pressure 29.89 in    
Wind  
Wind Speed 14 mph (NNE)    
Max Wind Speed 23 mph    
Max Gust Speed 31 mph    
Visibility 10 miles    
Events      
T = Trace of Precipitation, MM = Missing Value Source: NWS Daily Summary

Daily Weather History Graph

Daily Weather History Graph

Search for Another Location

Airport or City:

Astronomy

May. 05, 2019 Rise Set
Actual Time 6:19 AM CDT 8:39 PM CDT
Civil Twilight 5:47 AM CDT 9:11 PM CDT
Nautical Twilight 5:07 AM CDT 9:51 PM CDT
Astronomical Twilight 4:23 AM CDT 10:35 PM CDT
Moon 7:05 AM CDT (5/5) 9:34 PM CDT (5/5)
Length of Visible Light 15h 24m
Length of Day
14h 20m
New Moon, 1% of the Moon is Illuminated
May 5
New Moon
May 11
First Quarter
May 18
Full
May 26
Last Quarter
Jun 3
New

Hourly Weather History & Observations

Time (CDT) Temp. Windchill Dew Point Humidity Pressure Visibility Wind Dir Wind Speed Gust Speed Precip Events Conditions
12:53 AM 54.0 °F - 46.9 °F 77% 29.79 in 10.0 mi SSE 4.6 mph - N/A   Clear
1:53 AM 53.1 °F - 46.9 °F 80% 29.81 in 10.0 mi West 4.6 mph - N/A   Clear
2:53 AM 50.0 °F - 44.1 °F 80% 29.82 in 10.0 mi NW 9.2 mph - N/A   Mostly Cloudy
3:53 AM 48.0 °F - 43.0 °F 83% 29.83 in 10.0 mi WNW 12.7 mph 21.9 mph 0.00 in   Overcast
4:53 AM 48.9 °F - 44.1 °F 83% 29.84 in 10.0 mi WNW 12.7 mph - N/A   Overcast
5:53 AM 46.9 °F - 43.0 °F 86% 29.81 in 10.0 mi North 15.0 mph - 0.00 in   Scattered Clouds
6:53 AM 45.0 °F 37.6 °F 39.0 °F 80% 29.83 in 10.0 mi NNE 17.3 mph 24.2 mph N/A   Clear
7:53 AM 46.9 °F - 39.0 °F 74% 29.86 in 10.0 mi NNE 16.1 mph - N/A   Clear
8:53 AM 51.1 °F - 41.0 °F 68% 29.88 in 10.0 mi NE 12.7 mph - N/A   Clear
9:53 AM 54.0 °F - 41.0 °F 62% 29.90 in 10.0 mi NE 13.8 mph - N/A   Clear
10:53 AM 57.0 °F - 39.9 °F 53% 29.91 in 10.0 mi NE 13.8 mph 19.6 mph N/A   Clear
11:53 AM 59.0 °F - 39.0 °F 48% 29.91 in 10.0 mi NNE 15.0 mph 23.0 mph N/A   Partly Cloudy
12:53 PM 61.0 °F - 39.9 °F 46% 29.89 in 10.0 mi NNE 12.7 mph 26.5 mph N/A   Clear
1:53 PM 63.0 °F - 39.9 °F 43% 29.89 in 10.0 mi ENE 13.8 mph - N/A   Scattered Clouds
2:53 PM 62.1 °F - 37.9 °F 41% 29.89 in 10.0 mi NE 16.1 mph 23.0 mph N/A   Overcast
3:53 PM 62.1 °F - 37.0 °F 39% 29.88 in 10.0 mi NE 12.7 mph - N/A   Overcast
4:53 PM 62.1 °F - 37.0 °F 39% 29.87 in 10.0 mi NNE 12.7 mph - N/A   Overcast
5:53 PM 62.1 °F - 36.0 °F 38% 29.88 in 10.0 mi NNE 12.7 mph - N/A   Overcast
6:53 PM 59.0 °F - 39.0 °F 48% 29.88 in 10.0 mi North 20.7 mph - N/A   Clear
7:53 PM 54.0 °F - 37.9 °F 55% 29.90 in 10.0 mi NNE 18.4 mph - N/A   Overcast
8:53 PM 52.0 °F - 36.0 °F 54% 29.94 in 10.0 mi NNE 13.8 mph 25.3 mph N/A   Overcast
9:53 PM 48.9 °F - 37.0 °F 64% 29.99 in 10.0 mi NNE 16.1 mph 27.6 mph N/A   Overcast
10:53 PM 48.0 °F - 37.0 °F 66% 30.03 in 10.0 mi North 13.8 mph - N/A   Overcast
11:53 PM 46.9 °F - 37.0 °F 68% 30.02 in 10.0 mi North 17.3 mph - N/A   Overcast